Time,TemperatureF,DewpointF,PressureIn,WindDirection,WindDirectionDegrees,WindSpeedMPH,WindSpeedGustMPH,Humidity,HourlyPrecipIn,Conditions,Clouds,dailyrainin,SoftwareType,DateUTC
2013-07-15 00:02:00,77.0,72.0,30.17,SE,142,0.0,0.0,85,0.00,,,0.00,,2013-07-15 05:02:00,
2013-07-15 00:11:00,77.0,72.0,30.17,SE,142,0.0,0.0,85,0.00,,,0.00,,2013-07-15 05:11:00,
2013-07-15 00:21:00,77.0,72.0,30.17,SE,142,0.0,0.0,85,0.00,,,0.00,,2013-07-15 05:21:00,
2013-07-15 00:32:00,77.0,72.0,30.17,SE,142,0.0,0.0,85,0.00,,,0.00,,2013-07-15 05:32:00,
2013-07-15 00:43:00,77.0,72.0,30.17,SE,142,0.0,0.0,85,0.00,,,0.00,,2013-07-15 05:43:00,
2013-07-15 00:53:00,76.0,72.0,30.17,SE,142,0.0,0.0,86,0.00,,,0.00,,2013-07-15 05:53:00,
2013-07-15 01:02:00,75.0,71.0,30.17,SE,142,0.0,0.0,88,0.00,,,0.00,,2013-07-15 06:02:00,
2013-07-15 01:11:00,75.0,71.0,30.17,SE,142,0.0,0.0,88,0.00,,,0.00,,2013-07-15 06:11:00,
2013-07-15 01:22:00,75.0,72.0,30.17,SE,142,0.0,0.0,90,0.00,,,0.00,,2013-07-15 06:22:00,
2013-07-15 01:32:00,75.0,72.0,30.17,ESE,112,0.0,0.0,90,0.00,,,0.00,,2013-07-15 06:32:00,
2013-07-15 01:42:00,75.0,72.0,30.17,ESE,112,0.0,0.0,90,0.00,,,0.00,,2013-07-15 06:42:00,
2013-07-15 01:53:00,75.0,72.0,30.17,ESE,112,0.0,0.0,90,0.00,,,0.00,,2013-07-15 06:53:00,
2013-07-15 02:01:00,75.0,72.0,30.17,ESE,112,0.0,0.0,90,0.00,,,0.00,,2013-07-15 07:01:00,
2013-07-15 02:11:00,75.0,72.0,30.17,ESE,112,0.0,0.0,90,0.00,,,0.00,,2013-07-15 07:11:00,
2013-07-15 02:21:00,75.0,72.0,30.17,ESE,112,0.0,0.0,89,0.00,,,0.00,,2013-07-15 07:21:00,
2013-07-15 02:33:00,75.0,72.0,30.16,East,96,0.0,0.0,89,0.00,,,0.00,,2013-07-15 07:33:00,
2013-07-15 02:43:00,75.0,72.0,30.16,East,96,0.0,0.0,89,0.00,,,0.00,,2013-07-15 07:43:00,
2013-07-15 02:53:00,75.0,72.0,30.16,East,81,0.0,0.0,89,0.00,,,0.00,,2013-07-15 07:53:00,
2013-07-15 03:01:00,75.0,72.0,30.16,ESE,108,0.0,0.0,89,0.00,,,0.00,,2013-07-15 08:01:00,
2013-07-15 03:11:00,75.0,72.0,30.16,ESE,108,0.0,0.0,89,0.00,,,0.00,,2013-07-15 08:11:00,
2013-07-15 03:22:00,75.0,72.0,30.16,ESE,109,0.0,0.0,90,0.00,,,0.00,,2013-07-15 08:22:00,
2013-07-15 03:32:00,74.0,71.0,30.16,ESE,109,0.0,0.0,90,0.00,,,0.00,,2013-07-15 08:32:00,
2013-07-15 03:43:00,74.0,71.0,30.16,ESE,109,0.0,0.0,90,0.00,,,0.00,,2013-07-15 08:43:00,
2013-07-15 03:53:00,74.0,71.0,30.16,ESE,109,0.0,0.0,91,0.00,,,0.00,,2013-07-15 08:53:00,
2013-07-15 04:01:00,74.0,71.0,30.16,ESE,109,0.0,0.0,91,0.00,,,0.00,,2013-07-15 09:01:00,
2013-07-15 04:11:00,74.0,71.0,30.16,ESE,109,0.0,0.0,91,0.00,,,0.00,,2013-07-15 09:11:00,
2013-07-15 04:22:00,74.0,71.0,30.17,ESE,109,0.0,0.0,91,0.00,,,0.00,,2013-07-15 09:22:00,
2013-07-15 04:32:00,74.0,71.0,30.18,ESE,109,0.0,0.0,91,0.00,,,0.00,,2013-07-15 09:32:00,
2013-07-15 04:43:00,74.0,71.0,30.18,ESE,109,0.0,0.0,91,0.00,,,0.00,,2013-07-15 09:43:00,
2013-07-15 04:52:00,74.0,71.0,30.19,ESE,109,0.0,0.0,91,0.00,,,0.00,,2013-07-15 09:52:00,
2013-07-15 05:02:00,74.0,71.0,30.19,ESE,109,0.0,0.0,91,0.00,,,0.00,,2013-07-15 10:02:00,
2013-07-15 05:11:00,74.0,71.0,30.19,ESE,109,0.0,0.0,91,0.00,,,0.00,,2013-07-15 10:11:00,
2013-07-15 05:22:00,73.0,71.0,30.19,ESE,109,0.0,0.0,92,0.00,,,0.00,,2013-07-15 10:22:00,
2013-07-15 05:32:00,73.0,71.0,30.19,ESE,109,0.0,0.0,93,0.00,,,0.00,,2013-07-15 10:32:00,
2013-07-15 05:43:00,73.0,71.0,30.19,ESE,109,0.0,0.0,93,0.00,,,0.00,,2013-07-15 10:43:00,
2013-07-15 05:53:00,73.0,71.0,30.20,ESE,109,0.0,0.0,92,0.00,,,0.00,,2013-07-15 10:53:00,
2013-07-15 06:02:00,73.0,71.0,30.20,ESE,109,0.0,0.0,92,0.00,,,0.00,,2013-07-15 11:02:00,
2013-07-15 06:11:00,73.0,71.0,30.20,ESE,109,0.0,0.0,92,0.00,,,0.00,,2013-07-15 11:11:00,
2013-07-15 06:22:00,73.0,71.0,30.21,SE,146,0.0,0.0,93,0.00,,,0.00,,2013-07-15 11:22:00,
2013-07-15 06:32:00,74.0,72.0,30.21,SE,132,0.0,0.0,92,0.00,,,0.00,,2013-07-15 11:32:00,
2013-07-15 06:42:00,74.0,72.0,30.21,SE,132,0.0,0.0,92,0.00,,,0.00,,2013-07-15 11:42:00,
2013-07-15 06:52:00,75.0,72.0,30.22,ESE,102,0.0,0.0,91,0.00,,,0.00,,2013-07-15 11:52:00,
2013-07-15 07:11:00,75.0,72.0,30.22,SE,144,0.0,0.0,89,0.00,,,0.00,,2013-07-15 12:11:00,
2013-07-15 07:22:00,76.0,72.0,30.22,SE,124,0.0,0.0,87,0.00,,,0.00,,2013-07-15 12:22:00,
2013-07-15 07:32:00,76.0,72.0,30.23,SSE,159,0.0,0.0,86,0.00,,,0.00,,2013-07-15 12:32:00,
2013-07-15 07:42:00,76.0,72.0,30.23,SSE,159,0.0,0.0,86,0.00,,,0.00,,2013-07-15 12:42:00,
2013-07-15 07:53:00,77.0,72.0,30.23,SE,140,0.0,0.0,85,0.00,,,0.00,,2013-07-15 12:53:00,
2013-07-15 08:01:00,77.0,72.0,30.23,ESE,119,0.0,0.0,84,0.00,,,0.00,,2013-07-15 13:01:00,
2013-07-15 08:11:00,77.0,72.0,30.23,ESE,119,0.0,0.0,84,0.00,,,0.00,,2013-07-15 13:11:00,
2013-07-15 08:22:00,78.0,72.0,30.24,South,174,0.0,3.0,83,0.00,,,0.00,,2013-07-15 13:22:00,
2013-07-15 08:33:00,78.0,72.0,30.24,South,172,0.0,0.0,82,0.00,,,0.00,,2013-07-15 13:33:00,
2013-07-15 08:43:00,78.0,72.0,30.24,South,172,0.0,0.0,82,0.00,,,0.00,,2013-07-15 13:43:00,
2013-07-15 08:53:00,79.0,73.0,30.24,SSE,161,0.0,9.0,81,0.00,,,0.00,,2013-07-15 13:53:00,
2013-07-15 09:02:00,79.0,72.0,30.24,SSE,167,0.0,8.0,80,0.00,,,0.00,,2013-07-15 14:02:00,
2013-07-15 09:11:00,79.0,72.0,30.24,SSE,167,0.0,8.0,80,0.00,,,0.00,,2013-07-15 14:11:00,
2013-07-15 09:22:00,80.0,72.0,30.24,South,169,1.0,8.0,78,0.00,,,0.00,,2013-07-15 14:22:00,
2013-07-15 09:33:00,80.0,73.0,30.24,South,175,0.0,6.0,79,0.00,,,0.00,,2013-07-15 14:33:00,
2013-07-15 09:42:00,80.0,73.0,30.24,South,175,0.0,6.0,79,0.00,,,0.00,,2013-07-15 14:42:00,
2013-07-15 10:00:00,80.0,72.0,30.24,South,185,0.0,0.0,78,0.00,,,0.00,,2013-07-15 15:00:00,
2013-07-15 10:27:00,82.0,73.0,30.25,SE,142,0.0,0.0,75,0.00,,,0.00,,2013-07-15 15:27:00,
2013-07-15 10:38:00,81.0,73.0,30.25,SSE,156,0.0,0.0,76,0.00,,,0.00,,2013-07-15 15:38:00,
2013-07-15 10:53:00,81.0,73.0,30.26,South,180,0.0,1.0,77,0.00,,,0.00,,2013-07-15 15:53:00,
2013-07-15 11:07:00,82.0,74.0,30.26,South,181,0.0,0.0,76,0.00,,,0.00,,2013-07-15 16:07:00,
2013-07-15 11:15:00,82.0,74.0,30.26,South,181,0.0,0.0,76,0.00,,,0.00,,2013-07-15 16:15:00,
2013-07-15 11:24:00,82.0,73.0,30.26,SE,132,0.0,0.0,75,0.00,,,0.00,,2013-07-15 16:24:00,
2013-07-15 11:33:00,83.0,73.0,30.26,SSE,151,0.0,0.0,73,0.00,,,0.00,,2013-07-15 16:33:00,
2013-07-15 11:45:00,83.0,73.0,30.26,SSE,151,0.0,0.0,73,0.00,,,0.00,,2013-07-15 16:45:00,
2013-07-15 11:52:00,83.0,73.0,30.25,South,172,0.0,0.0,71,0.00,,,0.00,,2013-07-15 16:52:00,
2013-07-15 12:13:00,84.0,74.0,30.25,SE,133,0.0,0.0,72,0.00,,,0.00,,2013-07-15 17:13:00,
2013-07-15 12:23:00,85.0,75.0,30.25,East,86,0.0,0.0,71,0.00,,,0.00,,2013-07-15 17:23:00,
2013-07-15 12:36:00,86.0,74.0,30.25,SSE,152,0.0,0.0,68,0.00,,,0.00,,2013-07-15 17:36:00,
2013-07-15 12:48:00,86.0,74.0,30.25,SSE,152,0.0,0.0,68,0.00,,,0.00,,2013-07-15 17:48:00,
2013-07-15 13:00:00,85.0,74.0,30.25,East,94,0.0,0.0,69,0.00,,,0.00,,2013-07-15 18:00:00,
2013-07-15 13:16:00,84.0,74.0,30.25,East,95,0.0,0.0,72,0.00,,,0.00,,2013-07-15 18:16:00,
2013-07-15 13:27:00,83.0,73.0,30.24,East,99,0.0,0.0,73,0.00,,,0.00,,2013-07-15 18:27:00,
2013-07-15 13:37:00,84.0,74.0,30.24,ENE,77,0.0,0.0,71,0.00,,,0.00,,2013-07-15 18:37:00,
2013-07-15 13:45:00,84.0,74.0,30.24,ENE,77,0.0,0.0,71,0.00,,,0.00,,2013-07-15 18:45:00,
2013-07-15 13:59:00,86.0,75.0,30.24,East,101,0.0,0.0,70,0.00,,,0.00,,2013-07-15 18:59:00,
2013-07-15 14:05:00,84.0,74.0,30.23,East,82,0.0,0.0,71,0.00,,,0.00,,2013-07-15 19:05:00,
2013-07-15 14:11:00,84.0,74.0,30.23,East,82,0.0,0.0,71,0.00,,,0.00,,2013-07-15 19:11:00,
2013-07-15 14:24:00,84.0,74.0,30.23,ENE,77,0.0,0.0,71,0.00,,,0.00,,2013-07-15 19:24:00,
2013-07-15 14:35:00,86.0,75.0,30.23,SE,131,0.0,0.0,71,0.00,,,0.00,,2013-07-15 19:35:00,
2013-07-15 14:47:00,86.0,75.0,30.23,SE,131,0.0,0.0,71,0.00,,,0.00,,2013-07-15 19:47:00,
2013-07-15 14:56:00,86.0,74.0,30.22,East,94,0.0,0.0,67,0.00,,,0.00,,2013-07-15 19:56:00,
2013-07-15 15:06:00,85.0,74.0,30.22,ESE,123,0.0,0.0,70,0.00,,,0.00,,2013-07-15 20:06:00,
2013-07-15 15:16:00,85.0,74.0,30.22,ESE,123,0.0,0.0,70,0.00,,,0.00,,2013-07-15 20:16:00,
2013-07-15 15:28:00,86.0,74.0,30.22,ESE,105,0.0,0.0,68,0.00,,,0.00,,2013-07-15 20:28:00,
2013-07-15 15:36:00,86.0,75.0,30.21,ESE,105,0.0,0.0,69,0.00,,,0.00,,2013-07-15 20:36:00,
2013-07-15 15:43:00,86.0,75.0,30.21,ESE,105,0.0,0.0,69,0.00,,,0.00,,2013-07-15 20:43:00,
2013-07-15 15:58:00,86.0,75.0,30.21,SE,138,0.0,0.0,69,0.00,,,0.00,,2013-07-15 20:58:00,
2013-07-15 16:12:00,86.0,75.0,30.20,East,92,0.0,0.0,70,0.00,,,0.00,,2013-07-15 21:12:00,
2013-07-15 16:23:00,86.0,74.0,30.20,East,96,0.0,0.0,68,0.00,,,0.00,,2013-07-15 21:23:00,
2013-07-15 16:37:00,86.0,74.0,30.20,ESE,111,0.0,0.0,68,0.00,,,0.00,,2013-07-15 21:37:00,
2013-07-15 16:47:00,86.0,74.0,30.20,ESE,111,0.0,0.0,68,0.00,,,0.00,,2013-07-15 21:47:00,
2013-07-15 17:00:00,87.0,73.0,30.20,South,170,0.0,7.0,64,0.00,,,0.00,,2013-07-15 22:00:00,
2013-07-15 17:17:00,86.0,72.0,30.19,ESE,102,0.0,2.0,64,0.00,,,0.00,,2013-07-15 22:17:00,
2013-07-15 17:22:00,87.0,73.0,30.19,SE,132,0.0,0.0,64,0.00,,,0.00,,2013-07-15 22:22:00,
2013-07-15 17:34:00,87.0,73.0,30.20,SSE,159,0.0,1.0,64,0.00,,,0.00,,2013-07-15 22:34:00,
2013-07-15 17:43:00,87.0,73.0,30.20,SSE,159,0.0,1.0,64,0.00,,,0.00,,2013-07-15 22:43:00,
2013-07-15 17:54:00,86.0,73.0,30.20,ESE,107,0.0,0.0,66,0.00,,,0.00,,2013-07-15 22:54:00,
2013-07-15 18:05:00,86.0,73.0,30.19,East,90,0.0,0.0,65,0.00,,,0.00,,2013-07-15 23:05:00,
2013-07-15 18:13:00,86.0,73.0,30.19,East,90,0.0,0.0,65,0.00,,,0.00,,2013-07-15 23:13:00,
2013-07-15 18:37:00,87.0,74.0,30.19,ESE,103,0.0,0.0,65,0.00,,,0.00,,2013-07-15 23:37:00,
2013-07-15 18:46:00,87.0,74.0,30.19,ESE,103,0.0,0.0,65,0.00,,,0.00,,2013-07-15 23:46:00,
2013-07-15 18:54:00,86.0,74.0,30.19,South,174,0.0,0.0,68,0.00,,,0.00,,2013-07-15 23:54:00,
2013-07-15 19:03:00,86.0,74.0,30.20,ESE,116,0.0,0.0,68,0.00,,,0.00,,2013-07-16 00:03:00,
2013-07-15 19:15:00,86.0,74.0,30.20,ESE,116,0.0,0.0,68,0.00,,,0.00,,2013-07-16 00:15:00,
2013-07-15 19:25:00,85.0,73.0,30.20,East,101,0.0,0.0,68,0.00,,,0.00,,2013-07-16 00:25:00,
2013-07-15 19:33:00,85.0,73.0,30.20,SE,144,0.0,0.0,67,0.00,,,0.00,,2013-07-16 00:33:00,
2013-07-15 19:46:00,85.0,73.0,30.20,SE,144,0.0,0.0,67,0.00,,,0.00,,2013-07-16 00:46:00,
2013-07-15 19:53:00,84.0,73.0,30.21,SE,139,0.0,0.0,69,0.00,,,0.00,,2013-07-16 00:53:00,
2013-07-15 20:07:00,83.0,73.0,30.21,SSE,161,0.0,0.0,71,0.00,,,0.00,,2013-07-16 01:07:00,
2013-07-15 20:26:00,82.0,72.0,30.22,SSW,200,0.0,0.0,73,0.00,,,0.00,,2013-07-16 01:26:00,
2013-07-15 20:47:00,82.0,73.0,30.22,SSE,147,0.0,0.0,74,0.00,,,0.00,,2013-07-16 01:47:00,
2013-07-15 21:01:00,81.0,73.0,30.22,SSE,166,0.0,0.0,76,0.00,,,0.00,,2013-07-16 02:01:00,
2013-07-15 21:11:00,81.0,72.0,30.22,SSE,166,0.0,0.0,75,0.00,,,0.00,,2013-07-16 02:11:00,
2013-07-15 21:28:00,80.0,72.0,30.23,SSE,166,0.0,0.0,77,0.00,,,0.00,,2013-07-16 02:28:00,
2013-07-15 21:35:00,80.0,72.0,30.24,SSE,166,0.0,0.0,78,0.00,,,0.00,,2013-07-16 02:35:00,
2013-07-15 21:48:00,80.0,72.0,30.24,SSE,166,0.0,0.0,78,0.00,,,0.00,,2013-07-16 02:48:00,
2013-07-15 21:54:00,79.0,72.0,30.24,SSE,166,0.0,0.0,80,0.00,,,0.00,,2013-07-16 02:54:00,
2013-07-15 22:07:00,78.0,72.0,30.25,SSE,166,0.0,0.0,82,0.00,,,0.00,,2013-07-16 03:07:00,
2013-07-15 22:15:00,78.0,72.0,30.25,SSE,166,0.0,0.0,82,0.00,,,0.00,,2013-07-16 03:15:00,
2013-07-15 22:28:00,77.0,72.0,30.25,SSE,166,0.0,0.0,84,0.00,,,0.00,,2013-07-16 03:28:00,
2013-07-15 22:38:00,75.0,71.0,30.25,SSE,166,0.0,0.0,86,0.00,,,0.00,,2013-07-16 03:38:00,
2013-07-15 22:47:00,75.0,71.0,30.25,SSE,166,0.0,0.0,86,0.00,,,0.00,,2013-07-16 03:47:00,
2013-07-15 22:58:00,75.0,71.0,30.26,SSE,166,0.0,0.0,88,0.00,,,0.00,,2013-07-16 03:58:00,
2013-07-15 23:01:00,74.0,71.0,30.26,SSE,166,0.0,0.0,89,0.00,,,0.00,,2013-07-16 04:01:00,
2013-07-15 23:12:00,74.0,71.0,30.26,SSE,166,0.0,0.0,89,0.00,,,0.00,,2013-07-16 04:12:00,
2013-07-15 23:22:00,73.0,70.0,30.26,SSE,166,0.0,0.0,90,0.00,,,0.00,,2013-07-16 04:22:00,
2013-07-15 23:32:00,73.0,70.0,30.26,SSE,166,0.0,0.0,91,0.00,,,0.00,,2013-07-16 04:32:00,
2013-07-15 23:43:00,73.0,70.0,30.26,SSE,166,0.0,0.0,91,0.00,,,0.00,,2013-07-16 04:43:00,
2013-07-15 23:53:00,73.0,70.0,30.26,SSE,166,0.0,0.0,91,0.00,,,0.00,,2013-07-16 04:53:00,